Regional Weather Roundup
Issued by NWS Sterling, VA

Home | Current Version | Previous Version | Graphics & Text | Print | Product List | Glossary On
Versions: 1 2 3 4 5 6 7 8 9 10 11 12 13 14 15 16 17 18 19 20 21 22 23 24 25 26 27 28 29 30 31 32 33 34 35 36 37 38 39 40 41 42 43 44 45 46 47 48 49 50
946
ASUS41 KLWX 100910
RWRLWX

REGIONAL WEATHER ROUNDUP
NATIONAL WEATHER SERVICE BALTIMORE MD/WASHINGTON DC
400 AM EST WED FEB 10 2016

Note: "FAIR" indicates few or no clouds below 12,000 feet
with no significant weather and/or obstructions to visibility.
 TC=TEMPERATURE CELSIUS

 * =Non NWS site. Station does not report precipitation (e.g. rain,
    snow, etc.), thunder, or fog.

DCZ001-MDZ009-015-VAZ040>042-051-053>054-101000-
WASHINGTON METRO

CITY           SKY/WX    TMP DP  RH WIND       PRES   REMARKS
WASHINGTON NAT CLOUDY    29  23  78 W7        29.73S
DULLES         CLOUDY    28  18  66 W3        29.71S
ANDREWS AFB    CLOUDY    28  24  82 W12       29.70R WCI  18
FT BELVOIR     CLOUDY    29  23  79 VRB3      29.72F
QUANTICO       CLOUDY    32  23  69 CALM      29.75S
COLLEGE PARK*  CLOUDY    30  25  80 W6        29.71S
LEESBURG*      CLOUDY    32  23  69 W18G28    29.70S WCI  20
MANASSAS*      CLOUDY    30  21  69 W3        29.72S
GAITHERSBURG*  PTCLDY    27  19  74 W8        29.72S WCI  18

$$

MDZ006>007-011-014-101000-
BALTIMORE METRO

CITY           SKY/WX    TMP DP  RH WIND       PRES   REMARKS
BWI AIRPORT    LGT SNOW  28  23  81 W13       29.69R WCI  17
MD SCIENCE CTR   N/A     29  23  78 MISG      29.69S
MARTIN STATE   LGT SNOW  30  28  93 W7        29.70S
ANNAPOLIS      LGT SNOW  29  25  85 W9        29.70R FOG     WCI  20
FORT MEADE*    CLOUDY    28  27  93 W8        29.72S WCI  20

$$

MDZ012-015-019>023-101000-
MARYLAND EASTERN SHORE

CITY           SKY/WX    TMP DP  RH WIND       PRES   REMARKS
OCEAN CITY     CLOUDY    32  26  78 NW6       29.67S
SALISBURY      CLOUDY    32  24  72 W12G17    29.68R WCI  23
BAY BRIDGE AP* LGT SNOW  30  27  86 W13       29.70S WCI  20
CAMBRIDGE*     CLOUDY    30  27  86 W8G16     29.70R WCI  23
EASTON*        LGT SNOW  31  28  90 NW9       29.73R WCI  23

$$

MDZ017>025-101000-
SOUTHERN MARYLAND

CITY           SKY/WX    TMP DP  RH WIND       PRES   REMARKS
PATUXENT RIVER CLOUDY    30  22  72 W17       29.72R WCI  18
ST INIGOES     FLURRIES  31  22  69 NW10      29.72R WCI  22
LEONARDTOWN*   CLOUDY    30  23  74 W6        29.73R

$$

MDZ003>005-101000-
NORTH CENTRAL MARYLAND

CITY           SKY/WX    TMP DP  RH WIND       PRES   REMARKS
FREDERICK*     CLOUDY    30  23  74 W9G16     29.72S WCI  22
HAGERSTOWN APT CLOUDY    28  18  66 W9        29.67S WCI  19
WESTMINSTER*   CLOUDY    25  23  93 W7        29.64S

$$

MDZ501>502-101000-
WESTERN MARYLAND

CITY           SKY/WX    TMP DP  RH WIND       PRES   REMARKS
OAKLAND*       CLOUDY    16  12  86 W14G23    29.59S FOG     WCI   1
CUMBERLAND*    MOCLDY    30  18  59 W7G21     29.75S

$$

VAZ025>031-101000-
SHENANDOAH VALLEY

CITY           SKY/WX    TMP DP  RH WIND       PRES   REMARKS
WINCHESTER*    CLOUDY    30  18  59 W14G23    29.70R WCI  20
FRONT ROYAL*   CLOUDY    30  14  51 SW6       29.69S
LURAY*         FAIR      28  14  54 S7        29.70F
NEW MARKET*    CLOUDY    26  14  60 CALM      29.71S
STAUNTON*      FAIR      28  15  57 W3        29.73S
WAYNESBORO*    PTSUNNY   23  10  59 W5        29.71S

$$

WVZ021-048>050-054>055-101000-
EASTERN WEST VIRGINIA PANHANDLE

CITY           SKY/WX    TMP DP  RH WIND       PRES   REMARKS
MARTINSBURG    CLOUDY    28  15  58 W12       29.70R WCI  18
PETERSBURG*    CLOUDY    27  12  53 CALM      29.73S

$$

VAZ036>039-050-101000-
CENTRAL FOOTHILLS

CITY           SKY/WX    TMP DP  RH WIND       PRES   REMARKS
CHARLOTTESVILL MOCLDY    30  11  45 W3        29.72R
CULPEPER*      CLOUDY    28  20  71 CALM      29.73S
ORANGE*        CLOUDY    30  19  64 S7        29.73S
GORDONSVILLE*  PTSUNNY   29  16  57 SW6       29.72S
WARRENTON*     CLOUDY    29  24  79 CALM      29.71S

$$

VAZ055>057-101000-
NORTH AND CENTRAL PIEDMONT

CITY           SKY/WX    TMP DP  RH WIND       PRES   REMARKS
FREDERICKSBRG* CLOUDY    30  26  84 SW3       29.73S
STAFFORD*      CLOUDY    30  20  66 NW3       29.77R

$$

NCZ024-NYZ072-PAZ021-071-VAZ022-071-101000-
OTHER REGIONAL OBSERVATIONS

CITY           SKY/WX    TMP DP  RH WIND       PRES   REMARKS
NEW YORK CITY  CLOUDY    33  28  81 CALM      29.60S HAZE
PHILADELPHIA   LGT SNOW  32  27  81 W8        29.63S WCI  25
PITTSBURGH     LGT SNOW  23  16  74 W12G22    29.70S WCI  12
ROANOKE        MOCLDY    24  11  57 W21G29    29.79S WCI   9
RICHMOND       LGT SNOW  28  25  88 W5        29.75S FOG
RALEIGH        CLEAR     25  13  60 W5        29.84S

$$

ANZ530>537-101000-
MARINE OBSERVATIONS

STATION/POSITION TIME  TEMP    WIND        PRES
                       AIR SEA DIR/SP/G
                 (UTC) (F)     (DEG/KT/KT) (MB)
THOMAS PT LIGHT  0900   29 38  280/ 19/ 21 1006.2
BALT KEY BRIDGE  0800   30     260/ 15/ 18 1005.1R
COVE POINT       0800   30     330/ 12/ 20 1006.5R
LEWISETTA        0800   33 41  300/  7/ 10 1005.8R
SOLOMONS ISLAND  0800   32 40  320/  8/ 13   N/A
PINEY POINT      0800          330/ 17/ 19   N/A

$$





USA.gov is the U.S. government's official web portal to all federal, state and local government web resources and services.